Tracking 31027 objects as of 19-Jul-2025
HD Live streaming from Space Station
objects crossing your sky now

CZ-4B DEB

Track CZ-4B DEB now!
10-day predictions


NORAD ID: 46480
Int'l Code: 2020-067C
Perigee: 506.6 km
Apogee: 531.7 km
Inclination: 97.9 °
Period: 94.9 minutes
Semi major axis: 6890 km
RCS: Unknown
Launch date: September 27, 2020
Source: People's Republic of China (PRC)
Launch site: Taiyaun Space Center, China (TSC)

Note: This is SATELLITE DEBRIS
Your satellite tracking list
STARLINK-1243
Track 1 satellite(s)




NASA's NSSDC Master Catalog

Two Line Element Set (TLE):
1 46480U 20067C   25199.54564993  .00016767  00000-0  82452-3 0  9999
2 46480  97.8757 302.8900 0018212   8.5634 351.5905 15.17957856261280
Source of the keplerian elements: AFSPC